User: anonymous   Login
Location: Lewisville
(33.0462°N, 96.9942°W)
Time: 06:27:12
(UTC-06:00)
Language:

N. Korean satellite - Orbit

View from above orbital plane
View from above orbital plane
View from above satellite
View from above satellite

Ground track
Ground track

The orbit data is extracted from the following two-line orbital elements,

1 39026U 12072A   20048.91890905 +.00000697 +00000-0 +27472-4 0  9995
2 39026 097.2195 049.3333 0036305 314.8208 045.0082 15.28339702398833
Epoch (UTC): 17 February 2020 22:03:13
Eccentricity: 0.0036305
inclination: 97.2195°
perigee height: 456 km
apogee height: 505 km
right ascension of ascending node: 49.3333°
argument of perigee: 314.8208°
revolutions per day: 15.28339702
mean anomaly at epoch: 45.0082°
orbit number at epoch: 39883

The dashed part of the orbit path shows where the satellite is in the earth's shadow,  

DLR